Probability
1 2 2 3 3 3 2 1 1 2 2 3 2 1 0 0 0 0 0 0 0 0 0 0 0 0 0 0 0 1 2 2 2 1 1 2 2 3 2 2 3 4 4
0 1 1 2 2 2 2 1 0 1 1 2 2 1 0 0 0 0 0 0 0 0 0 0 0 0 0 0 0 2 3 4 4 3 3 2 2 2 2 2 3 4 5
0 0 0 1 1 1 1 0 0 0 0 1 1 1 1 1 0 0 0 0 0 0 0 0 0 0 0 0 0 1 2 3 4 4 3 3 3 2 2 2 2 3 4
0 0 0 0 0 0 1 1 1 0 0 0 0 1 2 2 1 1 0 0 0 0 0 0 0 0 0 0 0 1 1 1 2 2 2 1 1 1 1 1 1 2 2
0 0 0 1 1 1 2 2 2 1 0 0 0 0 1 2 2 2 1 1 1 0 0 0 0 0 0 0 1 2 2 1 0 0 0 0 0 0 0 0 1 2 2
0 0 0 1 2 2 3 3 3 2 0 0 0 0 0 1 1 2 2 2 2 1 0 0 0 0 0 0 1 2 2 2 1 1 1 1 0 0 0 0 0 1 2
0 0 0 0 1 2 2 3 2 1 0 0 0 0 0 0 0 1 1 2 2 1 0 0 0 1 1 1 1 1 1 2 3 2 2 1 1 1 1 1 0 1 1
0 0 0 0 0 1 1 1 1 1 0 0 0 0 0 0 0 0 0 1 1 1 0 0 1 2 2 2 2 1 1 2 2 2 1 1 1 1 2 1 1 0 0
0 0 0 0 0 0 0 0 0 0 0 0 0 0 0 0 0 0 0 0 0 0 0 0 2 3 3 2 2 1 0 1 1 1 0 0 0 1 1 1 1 1 1
0 0 0 0 0 0 0 0 0 0 0 0 0 0 0 0 0 0 0 0 0 0 0 0 1 2 1 1 1 0 0 0 0 0 0 0 0 0 0 0 0 1 1
1 1 1 0 0 0 0 0 0 0 0 0 0 0 0 0 0 0 0 0 0 0 0 0 0 0 0 0 0 0 0 0 0 0 0 0 0 0 0 0 0 0 1
0 1 1 0 0 0 0 0 0 0 0 0 0 0 0 0 0 0 0 0 0 0 0 0 0 0 0 0 0 0 0 0 0 0 0 0 0 0 0 0 0 0 0
0 0 0 0 0 0 0 0 0 0 0 0 0 0 0 0 0 0 0 0 0 0 0 0 0 0 0 0 0 0 0 0 0 0 0 0 0 0 0 0 0 0 0
0 0 0 0 0 0 0 0 0 0 0 0 0 0 0 0 0 0 0 0 0 0 0 0 0 0 0 0 0 0 0 0 0 0 0 0 0 0 0 0 0 0 0
0 0 0 0 0 0 0 0 0 0 0 0 0 0 0 0 0 0 0 0 0 0 0 0 0 0 0 0 0 0 0 0 0 0 0 0 0 0 0 0 0 0 0
0 0 0 0 0 0 0 0 0 0 0 0 0 0 0 0 0 0 0 0 0 0 0 0 0 0 0 0 0 0 0 0 0 0 0 0 0 0 0 0 0 0 0
0 0 0 0 0 0 0 0 0 0 0 0 0 0 0 0 0 0 0 0 0 0 0 0 0 0 0 0 0 0 0 0 0 0 0 0 0 0 0 0 0 0 0
0 0 0 0 0 0 0 0 0 0 0 0 0 0 0 0 0 0 0 0 0 0 0 0 0 0 0 0 0 0 0 0 0 0 0 0 0 0 0 0 0 0 0
0 0 0 0 0 0 0 0 0 0 0 0 0 0 0 0 0 0 0 0 0 0 0 0 0 0 0 0 0 0 0 0 0 0 0 0 0 0 0 0 0 0 0
0 0 0 0 0 0 0 0 0 0 0 0 0 0 0 0 0 0 0 0 0 0 0 0 0 0 0 0 0 0 0 0 0 0 0 0 0 0 0 0 0 0 0
0 0 0 0 0 0 0 0 0 0 0 0 0 0 0 0 0 0 0 0 0 0 0 0 0 0 0 0 0 0 0 0 0 0 0 0 0 0 0 0 0 0 0
0 0 0 0 0 0 0 0 0 0 0 0 0 0 0 0 0 0 0 0 0 0 0 0 0 0 0 0 0 0 0 0 0 0 0 0 0 0 0 0 0 0 0
0 0 0 0 0 0 0 0 0 0 0 0 0 0 0 0 0 0 0 0 0 0 0 0 0 0 0 0 0 0 0 0 0 0 0 0 0 0 0 0 0 0 0
0 0 0 0 0 0 0 0 0 0 0 0 0 0 0 0 0 0 0 0 0 0 0 0 0 0 0 0 0 0 0 0 0 0 0 0 0 0 0 0 0 0 0
0 0 0 0 0 0 0 0 0 0 0 0 0 0 0 0 0 0 0 0 0 0 0 0 0 0 0 0 0 0 0 0 0 0 0 0 0 0 0 0 0 0 0
0 0 0 0 0 0 0 0 0 0 0 0 0 0 0 0 0 0 0 0 0 0 0 0 0 0 0 0 0 0 0 0 0 0 0 0 0 0 0 0 0 0 0
Wind_Speed
1 1 1 1 1 1 1 1 1 1 2 2 2 2 2 2 2 2 1 4 4 5 4 4 4 3 4 4 4 4 5 5 6 6 6 6 6 6 7 7 7 7 7
1 1 1 1 1 1 1 1 2 1 1 1 2 2 2 2 1 1 1 2 3 4 5 5 4 4 4 4 4 5 5 6 6 7 7 7 7 7 8 8 8 8 8
2 1 1 1 2 1 1 1 1 1 1 1 2 2 2 2 2 2 2 1 1 3 4 5 5 5 5 5 6 6 6 7 7 7 8 7 7 8 8 8 9 9 9
2 1 1 1 1 1 1 1 1 1 1 1 2 2 2 2 2 2 1 1 2 2 2 5 6 6 6 6 7 6 7 7 8 8 8 8 8 9 9 9 9 9 10
1 1 1 1 2 1 1 1 2 2 2 2 2 2 2 2 2 2 2 2 2 2 2 3 4 6 7 7 7 7 8 8 9 9 9 10 10 10 10 10 10 10 10
1 1 1 2 1 1 1 1 1 2 2 2 2 3 2 2 2 2 2 1 1 2 2 3 2 3 5 7 8 8 9 9 10 10 10 10 10 11 11 11 10 11 12
2 2 1 1 1 1 1 2 2 2 2 2 2 2 2 2 2 1 1 1 1 2 2 3 3 3 3 5 6 9 10 10 10 10 11 11 11 11 11 12 12 11 12
1 1 1 1 1 1 1 1 1 1 1 2 2 3 2 2 1 1 1 2 2 2 2 3 4 4 4 3 4 8 9 10 11 11 11 11 12 12 12 13 13 13 13
0 0 0 0 0 1 1 1 1 1 1 1 2 3 3 3 2 2 2 2 2 2 3 3 3 4 5 4 4 6 9 11 11 11 12 12 12 13 13 13 13 14 14
1 1 1 1 1 1 2 2 2 2 2 2 1 2 3 3 3 3 2 2 3 4 4 4 4 4 5 4 4 7 9 11 12 12 12 13 13 13 14 14 14 14 14
2 2 2 1 1 1 2 2 2 2 2 3 2 2 3 3 5 4 5 4 4 4 4 5 4 4 4 4 4 6 9 11 12 13 13 13 14 14 14 14 14 15 15
2 2 2 2 2 2 2 3 3 4 4 4 3 3 3 3 4 4 6 6 6 4 5 4 4 4 4 4 5 7 9 11 12 12 13 14 14 14 14 14 15 15 16
2 2 2 2 2 2 2 3 3 4 4 5 5 4 4 4 4 5 6 6 7 6 5 4 3 3 4 4 5 7 9 11 12 13 13 14 14 14 15 15 15 15 16
2 2 3 3 3 3 3 3 3 4 4 5 5 5 4 4 4 5 5 6 7 6 6 6 3 4 4 5 5 8 7 10 12 13 14 14 14 15 15 15 15 15 16
2 3 3 3 3 3 4 4 4 4 4 4 5 5 5 4 4 5 5 5 6 7 7 5 4 4 5 5 6 7 8 10 13 13 14 15 15 15 15 15 15 15 15
3 3 3 3 4 4 4 4 4 4 4 4 4 5 5 4 4 4 5 5 6 7 8 5 5 6 7 7 9 9 9 12 13 14 14 15 15 15 15 15 16 16 16
3 4 4 4 4 4 4 4 4 4 5 5 5 6 6 6 5 4 5 5 6 6 9 7 6 7 9 9 8 8 8 8 8 12 14 15 15 15 15 15 16 16 16
4 4 4 4 4 4 4 5 5 5 5 6 6 6 6 5 6 5 5 6 6 7 8 9 7 7 9 9 9 9 8 7 8 10 13 14 15 15 15 15 15 15 15
4 4 4 4 5 5 5 5 5 5 6 6 6 7 7 7 7 6 6 6 6 6 7 7 7 6 7 7 8 8 9 8 8 9 11 12 13 14 14 14 14 14 14
4 4 4 5 5 5 5 5 5 6 6 6 6 6 7 7 7 7 7 7 6 6 6 7 6 6 6 7 7 7 7 7 7 7 8 9 11 12 13 14 13 12 13
5 5 5 5 5 4 4 5 5 6 6 6 6 6 6 7 8 8 6 6 6 6 6 6 6 6 6 6 6 6 7 7 7 6 6 7 7 7 7 9 10 11 12
5 5 5 5 5 4 4 6 6 6 6 6 6 6 6 7 8 10 11 11 9 8 7 7 6 7 8 7 7 6 7 7 7 4 7 8 6 7 6 6 9 11 11
5 5 5 5 5 4 5 7 8 6 6 6 6 5 5 5 7 7 8 10 10 11 11 9 9 9 9 8 8 8 8 8 8 7 7 8 7 7 6 6 10 10 10
5 5 5 5 4 4 5 6 7 6 6 6 6 6 6 6 6 7 7 7 8 8 8 8 8 9 8 8 8 8 9 9 9 7 6 7 6 6 6 6 7 8 8
4 4 4 4 5 5 5 6 6 4 5 6 5 5 6 7 8 9 8 7 7 7 7 9 10 10 11 12 9 6 6 6 7 6 4 5 5 6 6 5 5 6 7
4 4 4 4 4 4 5 5 6 4 4 4 5 5 6 7 9 8 7 6 7 7 6 6 7 7 8 8 9 7 6 6 6 5 2 3 4 4 5 3 4 4 5
Wind_Direction
88 80 67 57 48 40 34 17 21 33 23 8 1 353 352 349 343 344 32 41 20 7 359 353 351 353 348 346 342 339 341 336 331 325 313 307 306 301 295 292 291 292 289
73 85 77 55 42 28 19 4 16 6 8 352 342 338 337 335 333 328 335 37 40 19 360 354 348 344 338 332 328 330 333 331 330 328 321 316 312 306 298 292 290 290 288
61 63 58 46 30 17 17 1 20 356 360 342 334 335 333 330 324 328 331 330 5 38 13 357 353 348 340 335 331 328 326 325 323 322 322 316 312 309 305 299 294 288 286
51 54 55 40 23 9 6 4 1 353 346 335 333 334 325 315 309 317 318 326 334 343 14 12 356 348 344 341 335 332 328 325 321 320 318 316 312 309 308 304 300 293 289
49 42 37 38 27 23 17 7 1 343 331 332 326 317 310 304 303 296 299 320 337 341 340 13 9 1 353 348 344 339 332 326 323 321 318 316 314 307 303 301 301 301 297
51 42 50 44 35 25 16 6 5 348 325 322 317 307 294 288 280 282 290 303 334 336 340 345 341 2 357 348 341 335 329 325 321 318 316 315 311 308 305 301 301 301 300
62 50 45 45 23 12 7 358 355 337 345 335 308 302 277 256 259 257 275 280 311 325 331 338 335 333 336 344 341 337 331 326 323 320 318 316 312 310 308 309 304 302 300
64 56 52 27 358 327 355 356 330 323 335 336 315 297 284 236 204 267 283 287 298 312 323 331 330 326 322 321 335 331 326 322 320 318 319 319 317 312 310 308 307 305 302
149 103 228 272 282 284 285 277 278 292 297 306 311 304 295 295 316 253 266 272 291 301 307 313 316 318 319 315 312 324 326 321 315 314 312 312 311 311 310 310 307 307 305
228 218 226 234 240 256 265 267 275 285 277 277 286 282 291 304 288 292 258 268 291 295 297 304 306 307 307 307 316 323 326 323 317 313 312 310 308 308 308 309 309 308 307
231 222 226 228 238 248 258 263 269 268 260 265 270 276 272 270 263 269 280 285 286 283 293 297 296 300 305 303 307 320 324 322 320 318 314 310 309 308 308 308 308 308 307
229 228 231 234 240 246 255 262 259 257 255 256 260 262 265 266 268 268 277 287 288 290 292 286 286 292 299 300 308 320 318 317 317 316 314 313 310 308 307 307 307 306 305
230 236 245 244 244 249 256 257 257 254 251 250 254 260 264 267 274 275 278 284 286 290 280 272 273 288 295 299 305 318 307 309 311 311 310 310 308 307 306 304 304 303 303
240 241 248 254 248 243 247 249 254 255 252 251 254 257 260 262 262 265 272 282 285 281 274 278 284 282 294 299 310 308 298 304 306 306 305 306 305 304 302 302 300 300 300
244 238 246 253 254 246 244 247 248 254 257 257 259 259 258 258 259 262 263 264 274 282 283 286 287 288 300 300 305 299 298 301 301 300 298 298 298 298 299 299 299 297 296
247 245 249 252 254 251 245 247 254 255 259 259 259 256 258 259 259 259 260 262 263 271 277 281 287 292 296 293 295 295 295 297 293 294 295 296 295 295 297 297 298 297 294
245 246 248 251 252 253 252 252 255 259 261 261 257 255 257 260 260 260 259 259 261 264 271 281 284 290 289 291 293 292 292 292 291 293 294 295 294 294 295 294 294 295 295
241 243 243 245 250 251 251 252 255 255 256 259 261 260 260 261 260 261 259 259 261 264 271 280 286 289 290 291 292 292 293 291 289 292 293 294 293 292 292 292 292 293 293
239 242 243 245 248 250 252 253 253 252 254 259 262 263 265 265 265 263 262 263 265 267 270 275 284 290 291 291 293 291 291 292 292 291 291 291 292 293 292 293 292 293 294
238 240 242 245 248 249 251 252 253 255 257 261 264 264 264 263 265 267 266 266 267 268 270 273 280 286 291 296 294 296 298 299 297 297 293 294 294 294 292 292 292 293 296
238 239 241 246 248 249 248 252 257 258 259 262 265 265 265 265 267 269 271 273 270 268 271 274 278 283 287 295 294 297 295 301 298 292 299 298 297 292 290 289 289 295 296
235 236 240 244 247 250 255 266 269 263 260 259 263 267 267 263 264 268 271 273 274 272 273 273 275 277 284 290 293 292 294 297 296 300 303 298 295 291 292 292 298 299 298
232 235 240 243 249 253 255 263 271 271 263 259 263 267 267 270 273 270 273 273 273 269 268 270 272 276 283 287 289 287 285 288 288 297 298 290 294 291 293 293 299 298 296
232 236 239 245 254 256 258 268 275 269 266 266 266 265 266 270 274 278 278 277 277 273 269 265 267 276 282 284 281 283 286 288 286 283 285 283 293 293 298 294 297 301 302
233 238 243 245 252 256 254 268 274 269 264 268 270 268 266 269 275 278 278 280 284 284 276 271 276 281 284 283 282 283 282 282 286 288 282 276 292 304 299 291 297 306 308
236 243 246 248 251 258 257 264 268 263 268 274 274 271 269 273 280 284 279 278 283 291 295 292 284 283 281 280 279 274 276 278 286 287 289 290 294 308 301 293 310 318 312